Hourly Weather Kiyakovo

Today, 27 July, Tuesday

Time Temperature Precipitation Wind Pressure Humidity
00:00 +19°C° 0 mm 3 mps 747 mmHg 74%
01:00 +19°C° 0 mm 3 mps 747 mmHg 74%
02:00 +18°C° 0 mm 3 mps 747 mmHg 75%
03:00 +19°C° 0 mm 3 mps 747 mmHg 74%
04:00 +19°C° 0 mm 3 mps 746 mmHg 73%
05:00 +19°C° 0 mm 3 mps 746 mmHg 73%
06:00 +20°C° 0.1 mm 4 mps 746 mmHg 71%
07:00 +21°C° 0.1 mm 4 mps 746 mmHg 70%
08:00 +22°C° 0.1 mm 5 mps 746 mmHg 69%
09:00 +23°C° 0 mm 5 mps 746 mmHg 65%
10:00 +25°C° 0 mm 5 mps 746 mmHg 61%
11:00 +24°C° 0 mm 6 mps 745 mmHg 57%
12:00 +27°C° 0 mm 6 mps 745 mmHg 51%
13:00 +29°C° 0 mm 6 mps 745 mmHg 46%
14:00 +32°C° 0 mm 6 mps 744 mmHg 40%
15:00 +30°C° 0 mm 6 mps 744 mmHg 42%
16:00 +30°C° 0 mm 5 mps 743 mmHg 43%
17:00 +30°C° 0 mm 4 mps 743 mmHg 45%
18:00 +28°C° 0.3 mm 4 mps 743 mmHg 55%
19:00 +26°C° 0.3 mm 4 mps 742 mmHg 65%
20:00 +24°C° 0.3 mm 3 mps 742 mmHg 76%
21:00 +22°C° 1.2 mm 3 mps 742 mmHg 82%
22:00 +21°C° 1.2 mm 2 mps 742 mmHg 89%
23:00 +20°C° 1.2 mm 1 mps 743 mmHg 96%

Tomorrow, 28 July, Wednesday

Time Temperature Precipitation Wind Pressure Humidity
00:00 +20°C° 0.8 mm 1 mps 742 mmHg 96%
01:00 +20°C° 0.8 mm 1 mps 742 mmHg 97%
02:00 +20°C° 0.8 mm 1 mps 742 mmHg 98%
03:00 +20°C° 0.4 mm 1 mps 742 mmHg 98%
04:00 +20°C° 0.4 mm 1 mps 742 mmHg 98%
05:00 +20°C° 0.4 mm 1 mps 741 mmHg 98%
06:00 +20°C° 0.1 mm 2 mps 742 mmHg 95%
07:00 +20°C° 0.1 mm 2 mps 742 mmHg 92%
08:00 +21°C° 0.1 mm 3 mps 742 mmHg 89%
09:00 +24°C° 0 mm 3 mps 742 mmHg 79%
10:00 +25°C° 0 mm 3 mps 742 mmHg 69%
11:00 +27°C° 0 mm 3 mps 742 mmHg 59%
12:00 +28°C° 0 mm 4 mps 742 mmHg 54%
13:00 +29°C° 0 mm 4 mps 742 mmHg 49%
14:00 +30°C° 0 mm 5 mps 741 mmHg 44%
15:00 +30°C° 0 mm 5 mps 741 mmHg 45%
16:00 +29°C° 0 mm 5 mps 741 mmHg 45%
17:00 +29°C° 0 mm 5 mps 741 mmHg 46%
18:00 +27°C° 0 mm 4 mps 741 mmHg 54%
19:00 +25°C° 0 mm 3 mps 741 mmHg 62%
20:00 +24°C° 0 mm 2 mps 741 mmHg 70%
21:00 +23°C° 0 mm 2 mps 741 mmHg 73%
22:00 +21°C° 0 mm 2 mps 741 mmHg 76%
23:00 +20°C° 0 mm 2 mps 741 mmHg 80%

Day after tomorrow, 29 July, Thursday

Time Temperature Precipitation Wind Pressure Humidity
00:00 +20°C° 0 mm 2 mps 741 mmHg 81%
01:00 +19°C° 0 mm 2 mps 741 mmHg 82%
02:00 +19°C° 0 mm 2 mps 741 mmHg 83%
03:00 +19°C° 0 mm 2 mps 740 mmHg 82%
04:00 +19°C° 0 mm 2 mps 740 mmHg 82%
05:00 +20°C° 0 mm 2 mps 740 mmHg 81%
06:00 +20°C° 0 mm 2 mps 740 mmHg 81%
07:00 +20°C° 0 mm 2 mps 740 mmHg 80%
08:00 +20°C° 0 mm 3 mps 740 mmHg 79%
09:00 +20°C° 0.1 mm 3 mps 741 mmHg 78%
10:00 +21°C° 0.1 mm 2 mps 741 mmHg 77%
11:00 +21°C° 0.1 mm 2 mps 741 mmHg 76%
12:00 +22°C° 0 mm 3 mps 741 mmHg 69%
13:00 +25°C° 0 mm 3 mps 740 mmHg 61%
14:00 +27°C° 0 mm 3 mps 740 mmHg 54%
15:00 +26°C° 0.6 mm 4 mps 740 mmHg 61%
16:00 +25°C° 0.6 mm 4 mps 740 mmHg 69%
17:00 +25°C° 0.6 mm 4 mps 740 mmHg 76%
18:00 +22°C° 0.3 mm 3 mps 740 mmHg 79%
19:00 +21°C° 0.3 mm 3 mps 739 mmHg 83%
20:00 +20°C° 0.3 mm 2 mps 739 mmHg 86%
21:00 +19°C° 0 mm 2 mps 739 mmHg 86%
22:00 +19°C° 0 mm 2 mps 740 mmHg 86%
23:00 +19°C° 0 mm 2 mps 740 mmHg 86%

30 July, Friday

Time Temperature Precipitation Wind Pressure Humidity
00:00 +18°C° 0 mm 2 mps 740 mmHg 86%
01:00 +18°C° 0 mm 2 mps 739 mmHg 85%
02:00 +18°C° 0 mm 3 mps 739 mmHg 85%
03:00 +18°C° 0 mm 3 mps 739 mmHg 84%
04:00 +17°C° 0 mm 3 mps 739 mmHg 84%
05:00 +17°C° 0 mm 3 mps 739 mmHg 84%
06:00 +18°C° 0 mm 3 mps 739 mmHg 79%
07:00 +19°C° 0 mm 4 mps 740 mmHg 73%
08:00 +21°C° 0 mm 4 mps 740 mmHg 68%
09:00 +22°C° 0 mm 5 mps 740 mmHg 59%
10:00 +24°C° 0 mm 6 mps 739 mmHg 50%
11:00 +26°C° 0 mm 7 mps 739 mmHg 41%
12:00 +26°C° 0 mm 6 mps 739 mmHg 43%
13:00 +26°C° 0 mm 6 mps 739 mmHg 44%
14:00 +24°C° 0 mm 6 mps 739 mmHg 46%
15:00 +24°C° 0 mm 6 mps 739 mmHg 47%
16:00 +24°C° 0 mm 6 mps 739 mmHg 48%
17:00 +25°C° 0 mm 5 mps 738 mmHg 50%
18:00 +23°C° 0 mm 4 mps 738 mmHg 55%
19:00 +21°C° 0 mm 3 mps 738 mmHg 60%
20:00 +20°C° 0 mm 2 mps 738 mmHg 65%
21:00 +20°C° 0 mm 2 mps 738 mmHg 63%
22:00 +20°C° 0 mm 2 mps 738 mmHg 61%
23:00 +19°C° 0 mm 2 mps 738 mmHg 59%

31 July, Saturday

Time Temperature Precipitation Wind Pressure Humidity
00:00 +19°C° 0 mm 2 mps 738 mmHg 62%
01:00 +18°C° 0 mm 3 mps 738 mmHg 64%
02:00 +17°C° 0 mm 3 mps 738 mmHg 66%
03:00 +16°C° 0 mm 3 mps 738 mmHg 71%
04:00 +16°C° 0 mm 3 mps 738 mmHg 76%
05:00 +15°C° 0 mm 2 mps 738 mmHg 80%
06:00 +17°C° 0 mm 3 mps 738 mmHg 72%
07:00 +18°C° 0 mm 3 mps 738 mmHg 63%
08:00 +20°C° 0 mm 3 mps 738 mmHg 55%
09:00 +22°C° 0 mm 3 mps 738 mmHg 51%
10:00 +23°C° 0 mm 4 mps 738 mmHg 46%
11:00 +25°C° 0 mm 4 mps 739 mmHg 42%
12:00 +26°C° 0 mm 4 mps 738 mmHg 40%
13:00 +27°C° 0 mm 4 mps 738 mmHg 39%
14:00 +27°C° 0 mm 4 mps 738 mmHg 38%
15:00 +27°C° 0 mm 4 mps 738 mmHg 40%
16:00 +27°C° 0 mm 4 mps 738 mmHg 42%
17:00 +27°C° 0 mm 4 mps 738 mmHg 44%
18:00 +25°C° 0 mm 3 mps 737 mmHg 52%
19:00 +22°C° 0 mm 3 mps 737 mmHg 60%
20:00 +20°C° 0 mm 2 mps 737 mmHg 69%
21:00 +20°C° 0 mm 2 mps 737 mmHg 71%
22:00 +19°C° 0 mm 2 mps 737 mmHg 73%
23:00 +19°C° 0 mm 3 mps 737 mmHg 75%

1 August, Sunday

Time Temperature Precipitation Wind Pressure Humidity
00:00 +18°C° 0.1 mm 3 mps 737 mmHg 80%
01:00 +18°C° 0.1 mm 2 mps 737 mmHg 85%
02:00 +18°C° 0.1 mm 2 mps 737 mmHg 90%
03:00 +17°C° 0 mm 3 mps 737 mmHg 92%
04:00 +16°C° 0 mm 3 mps 737 mmHg 95%
05:00 +16°C° 0 mm 3 mps 737 mmHg 97%
06:00 +17°C° 0 mm 3 mps 737 mmHg 88%
07:00 +18°C° 0 mm 3 mps 737 mmHg 79%
08:00 +20°C° 0 mm 4 mps 738 mmHg 70%
09:00 +21°C° 0 mm 4 mps 738 mmHg 63%
10:00 +22°C° 0 mm 5 mps 738 mmHg 56%
11:00 +23°C° 0 mm 6 mps 738 mmHg 49%
12:00 +24°C° 0 mm 6 mps 738 mmHg 48%
13:00 +24°C° 0 mm 7 mps 738 mmHg 46%
14:00 +24°C° 0 mm 7 mps 738 mmHg 45%
15:00 +24°C° 0 mm 6 mps 738 mmHg 45%
16:00 +23°C° 0 mm 6 mps 738 mmHg 46%
17:00 +23°C° 0 mm 5 mps 738 mmHg 46%
18:00 +22°C° 0 mm 4 mps 738 mmHg 49%
19:00 +21°C° 0 mm 4 mps 739 mmHg 52%
20:00 +20°C° 0 mm 3 mps 739 mmHg 56%
21:00 +19°C° 0 mm 3 mps 739 mmHg 61%
22:00 +18°C° 0 mm 2 mps 738 mmHg 67%
23:00 +16°C° 0 mm 2 mps 738 mmHg 72%
Show more